Volver al catálogo

DRAGRACER 2

AUGURY

ActivoCienciaPO
NORAD 46955·PAYLOAD·🇺🇸 United States

Lanzado Nov 20, 2020 desde Rocket Lab Launch Complex 1

Loading…

Próximos Pases (próximas 24 horas)

TLE

ActualizadoSource: Space-Track

Época: Sep 14, 2026, 00:16 UTC

1 46955U 20085AC  26257.01117653  .00045574  00000-0  26931-3 0  9999
2 46955  97.5702 101.1712 0002395 292.3860  67.7152 15.78015331325847

Sigue DRAGRACER 2 en tiempo real con AllMySat

Download on the App Store